EST,Max TemperatureF,Mean TemperatureF,Min TemperatureF,Max Dew PointF,MeanDew PointF,Min DewpointF,Max Humidity, Mean Humidity, Min Humidity, Max Sea Level PressureIn, Mean Sea Level PressureIn, Min Sea Level PressureIn, Max VisibilityMiles, Mean VisibilityMiles, Min VisibilityMiles, Max Wind SpeedMPH, Mean Wind SpeedMPH, Max Gust SpeedMPH,PrecipitationIn, CloudCover, Events, WindDirDegrees
2012-12-1,19,14,8,19,14,0,100,98,62,,,,1,0,0,44,36,46,0.09,8,Fog-Snow,250
2012-12-2,33,26,19,34,29,19,100,100,100,,,,0,0,0,66,41,77,0.33,8,Fog-Rain-Snow,231
2012-12-3,35,30,24,32,17,0,100,65,22,,,,0,0,0,84,52,92,0.00,4,Fog-Rain,298
2012-12-4,39,36,32,39,32,9,100,89,38,,,,0,0,0,58,42,69,0.00,3,Fog,252
2012-12-5,37,19,1,37,17,1,100,100,100,,,,0,0,0,78,59,84,0.80,,Fog-Rain-Snow,290
2012-12-6,26,14,1,7,-9,-22,100,37,16,,,,0,0,0,71,48,81,0.01,3,Fog-Snow,313
2012-12-7,26,24,21,25,8,-17,100,60,17,,,,0,0,0,45,31,55,0.00,8,Fog-Snow,251
2012-12-8,32,28,24,32,29,25,100,98,80,,,,0,0,0,76,29,82,0.01,6,Fog-Snow,247
2012-12-9,24,18,12,25,0,-24,100,55,12,,,,0,0,0,76,55,86,0.01,7,Fog-Snow,285
2012-12-10,33,22,10,34,27,10,100,100,100,,,,0,0,0,63,47,82,0.91,,Fog-Rain-Snow,231
2012-12-11,23,16,6,23,7,-6,100,79,45,,,,0,0,0,55,44,63,0.02,1,Fog-Snow,295
2012-12-12,10,7,6,10,5,1,100,90,73,,,,0,0,0,53,38,58,0.00,1,Fog-Snow,292
2012-12-13,19,14,8,10,-7,-40,100,51,7,,,,0,0,0,38,27,41,0.00,3,Fog-Snow,295
2012-12-14,17,14,10,16,8,-2,100,78,42,,,,0,0,0,70,35,81,0.00,5,Fog-Snow,288
2012-12-15,12,6,3,9,-11,-24,100,47,23,,,,0,0,0,59,43,61,0.00,1,Fog-Snow,302
2012-12-16,23,16,10,23,15,-8,100,89,41,,,,0,0,0,36,30,38,0.24,7,Fog-Snow,255
2012-12-17,21,18,14,21,19,14,100,100,100,,,,0,0,0,40,32,48,0.67,,Fog-Snow,161
2012-12-18,24,22,21,25,24,21,100,100,100,,,,0,0,0,68,46,85,0.00,,Fog-Rain-Snow,118
2012-12-19,24,19,12,25,17,12,100,100,93,,,,1,0,0,45,28,50,0.05,7,Fog-Snow,336
2012-12-20,28,20,12,16,6,-4,100,63,25,,,,0,0,0,38,27,40,0.00,3,Fog,254
2012-12-21,32,23,14,32,20,1,100,97,46,,,,20,1,0,105,57,124,1.16,8,Fog-Rain-Snow,152
2012-12-22,14,4,-5,14,4,-6,100,100,100,,,,0,0,0,84,37,91,0.50,,Fog-Snow,278
2012-12-23,6,0,-7,7,0,-8,100,100,100,,,,0,0,0,102,81,112,0.14,,Fog-Snow,286
2012-12-24,19,8,-4,3,-7,-36,100,71,8,,,,0,0,0,76,59,84,0.00,5,Fog-Snow,297
2012-12-25,19,14,8,19,-2,-24,100,57,14,,,,4,1,0,58,23,52,0.02,4,Fog-Snow,312
2012-12-26,24,17,8,10,1,-9,100,51,22,,,,0,0,0,61,30,67,0.03,4,Fog-Snow,25
2012-12-27,14,11,8,14,12,9,100,100,100,,,,0,0,0,89,65,105,0.48,,Fog-Snow,84
2012-12-28,12,6,0,12,5,-2,100,93,67,,,,0,0,0,64,51,78,0.00,3,Fog-Snow,320
2012-12-29,19,14,10,19,7,-26,100,76,12,,,,2,0,0,50,29,22,0.27,4,Fog-Snow,204
2012-12-30,12,-1,-14,12,-5,-15,100,100,100,,,,0,0,0,101,63,114,0.25,6,Fog-Snow,320
2012-12-31,8,-2,-11,9,2,-11,100,100,100,,,,0,0,0,100,79,110,0.00,,Fog-Snow,303